{"data":{"norad_id":55166,"intl_designator":"2023-004AC","name":"ONEWEB-0625","alt_names":[],"object_type":"PAYLOAD","status":"ACTIVE","operator":null,"country":"UK","launch_date":"2023-01-10","launch_site_code":"AFETR","launch_vehicle":null,"mission":null,"orbit_class":"UNKNOWN","rcs_meters":null,"size_class":null,"mass_kg":null,"dimensions":null,"purposes":["comms"],"wikipedia_slug":null,"has_3d_model":false,"image_url":null,"decayed_at":null,"tle_current":{"epoch":"2026-09-20T00:06:00.675072Z","epoch_age_seconds":64723,"freshness":"FRESH","line1":"1 55166U 23004AC  26263.00417448  .00000066  00000+0  13565-3 0  9993","line2":"2 55166  87.9205 347.0466 0001954  97.8260 262.3093 13.17647470180067","mean_motion":13.1764747,"eccentricity":0.0001954,"inclination_deg":87.9205,"raan_deg":347.0466,"arg_perigee_deg":97.826,"mean_anomaly_deg":262.3093,"bstar":0.00013565,"rev_number":18006,"period_min":109.28568018273,"perigee_km":1192.239580598,"apogee_km":1195.1986619702,"semimajor_km":7571.8561212841,"source":"CELESTRAK","updated_at":"2026-09-20T09:00:44.755721Z"}}}